TimeCST,TemperatureF,Dew PointF,Humidity,Sea Level PressureIn,VisibilityMPH,Wind Direction,Wind SpeedMPH,Gust SpeedMPH,PrecipitationIn,Events,Conditions,WindDirDegrees,DateUTC
12:00 AM,66.2,62.6,88,30.27,6.2,North,9.2,-,N/A,,Mostly Cloudy,10,2013-08-21 06:00:00
1:00 AM,66.2,62.6,88,30.27,6.2,North,9.2,-,N/A,,Mostly Cloudy,360,2013-08-21 07:00:00
2:00 AM,64.4,62.6,94,30.27,6.2,North,9.2,-,N/A,,Mostly Cloudy,360,2013-08-21 08:00:00
3:00 AM,64.4,62.6,94,30.24,6.2,North,9.2,-,N/A,,Mostly Cloudy,350,2013-08-21 09:00:00
4:00 AM,64.4,62.6,94,30.24,6.2,North,9.2,-,N/A,,Mostly Cloudy,360,2013-08-21 10:00:00
5:00 AM,62.6,62.6,100,30.24,6.2,North,6.9,-,N/A,,Mostly Cloudy,360,2013-08-21 11:00:00
6:00 AM,62.6,62.6,100,30.27,6.2,NNE,6.9,-,N/A,,Scattered Clouds,30,2013-08-21 12:00:00
7:00 AM,64.4,62.6,94,30.27,6.2,North,11.5,-,N/A,,Scattered Clouds,360,2013-08-21 13:00:00
8:00 AM,64.4,60.8,88,30.30,6.2,North,11.5,-,N/A,,Mostly Cloudy,360,2013-08-21 14:00:00
9:00 AM,71.6,60.8,69,30.30,6.2,North,11.5,-,N/A,,Scattered Clouds,360,2013-08-21 15:00:00
10:00 AM,71.6,60.8,69,29.89,6.2,North,16.1,-,N/A,,Mostly Cloudy,360,2013-08-21 16:00:00
11:00 AM,71.6,60.8,69,30.30,6.2,North,11.5,-,N/A,,Scattered Clouds,360,2013-08-21 17:00:00
12:00 PM,75.2,60.8,61,30.30,6.2,North,13.8,-,N/A,,Scattered Clouds,360,2013-08-21 18:00:00
1:00 PM,75.2,60.8,61,30.27,6.2,North,13.8,-,N/A,,Partly Cloudy,360,2013-08-21 19:00:00
2:00 PM,77.0,60.8,57,30.24,6.2,NNE,16.1,-,N/A,,Partly Cloudy,30,2013-08-21 20:00:00
3:00 PM,77.0,60.8,57,30.21,6.2,NNE,16.1,-,N/A,,Partly Cloudy,30,2013-08-21 21:00:00
4:00 PM,75.2,60.8,61,30.18,6.2,NNE,11.5,-,N/A,,Scattered Clouds,20,2013-08-21 22:00:00
4:40 PM,-9999,-9999,N/A,-9999,6.2,NNE,13.8,-,N/A,Rain,Light Rain,20,2013-08-21 22:40:00
5:00 PM,69.8,62.6,78,30.21,6.2,NNE,13.8,-,N/A,Rain,Light Rain,20,2013-08-21 23:00:00
6:00 PM,68.0,62.6,83,30.21,6.2,NNW,11.5,-,N/A,Thunderstorm,Thunderstorm,340,2013-08-22 00:00:00
6:38 PM,-9999,-9999,N/A,-9999,6.2,North,9.2,-,N/A,,Mostly Cloudy,360,2013-08-22 00:38:00
7:00 PM,68.0,62.6,83,30.24,6.2,North,11.5,-,N/A,,Mostly Cloudy,10,2013-08-22 01:00:00
8:00 PM,68.0,62.6,83,30.27,6.2,North,9.2,-,N/A,,Mostly Cloudy,360,2013-08-22 02:00:00
9:00 PM,66.2,62.6,88,30.27,6.2,North,13.8,-,N/A,,Mostly Cloudy,360,2013-08-22 03:00:00
10:00 PM,66.2,64.4,94,30.30,6.2,North,9.2,-,N/A,,Partly Cloudy,350,2013-08-22 04:00:00
10:44 PM,-9999,-9999,N/A,-9999,6.2,North,11.5,-,N/A,,Light Drizzle,360,2013-08-22 04:44:00
11:00 PM,66.2,62.6,88,-9999,5.0,North,9.2,-,N/A,Rain-Thunderstorm,Thunderstorms and Rain,360,2013-08-22 05:00:00
11:30 PM,-9999,-9999,N/A,-9999,6.2,North,9.2,-,N/A,Rain,Rain,360,2013-08-22 05:30:00